Flag for U.S.A. Weather past 2 weeks in Sandpoint, Idaho, U.S.A.

Now
43 °F

Partly cloudy.


Feels Like: 41 °F
Forecast: 41 / 51 °F
Wind: 3 mph from South

Location: Sandpoint Airport

Current Time: Oct 24, 2014 at 8:35:27 AM

Latest Report: Oct 24, 2014 at 7:55 AM


Visibility: 10 mi

Pressure: 30.08 "Hg

Humidity: 100%

Dew point: 43 °F

Location of SandpointLocation

Historic Weather in Sandpoint — Graph

°F

Sandpoint temperature yesterday

Maximum temperature yesterday: 52 °F (at 12:15 PM)
Minimum temperature yesterday: 46 °F (at 2:15 AM)
Average temperature yesterday: 50 °F

Past Weeks' High & Low Weather Summary

 TemperatureHumidityPressure
High72 °F (Oct 10, 3:15 PM)100% (Oct 9, 7:15 AM)30.17 "Hg (Oct 9, 7:15 AM)
Low32 °F (Oct 17, 1:55 AM)34% (Oct 12, 2:55 PM)29.57 "Hg (Oct 15, 2:55 AM)
Average49 °F85%29.93 "Hg
* Reported Oct 9 7:15 AM — Oct 24 7:15 AM, Sandpoint, Weather by CustomWeather, © 2014

Note: Actual official high and low records may vary slightly from our data, if they occured in-between our weather recording intervals... More about our weather records

Advertising

Sandpoint weather history for previous 24 hours

 ConditionsComfort  
Time TempWeatherWind HumidityBarometerVisibility
7:15 AM
Oct 24
43 °FMostly cloudy.3 mph93%30.07 "Hg10 mi
6:55 AM43 °FOvercast.3 mph93%30.07 "Hg10 mi
6:15 AM43 °FOvercast.5 mph100%30.05 "Hg10 mi
5:55 AM43 °FOvercast.No wind100%30.05 "Hg10 mi
5:35 AM45 °FPassing clouds.6 mph93%30.04 "Hg10 mi
5:15 AM43 °FPassing clouds.5 mph100%30.05 "Hg10 mi
4:55 AM43 °FPassing clouds.3 mph100%30.04 "Hg10 mi
4:35 AM43 °FPassing clouds.3 mph100%30.04 "Hg10 mi
4:15 AM45 °FPassing clouds.5 mph100%30.04 "Hg10 mi
3:55 AM43 °FPassing clouds.3 mph100%30.03 "Hg10 mi
3:35 AM45 °FClear.5 mph93%30.03 "Hg10 mi
3:15 AM45 °FPassing clouds.6 mph100%30.02 "Hg10 mi
2:55 AM46 °FPartly cloudy.5 mph93%30.02 "Hg10 mi
2:35 AM46 °FOvercast.3 mph93%30.03 "Hg10 mi
2:15 AM46 °FMostly cloudy.3 mph93%30.01 "Hg10 mi
1:55 AM46 °FMostly cloudy.5 mph93%30.00 "Hg10 mi
1:35 AM46 °FOvercast.3 mph93%30.00 "Hg10 mi
1:15 AM46 °FMostly cloudy.No wind93%29.99 "Hg10 mi
12:55 AM46 °FMostly cloudy.3 mph93%29.99 "Hg10 mi
12:15 AM46 °FMostly cloudy.3 mph93%29.96 "Hg10 mi
11:55 PM
Oct 23
46 °FMostly cloudy.3 mph93%29.95 "Hg10 mi
11:15 PM46 °FOvercast.5 mph87%29.94 "Hg10 mi
10:55 PM46 °FOvercast.3 mph93%29.94 "Hg10 mi
10:35 PM48 °FOvercast.5 mph87%29.94 "Hg10 mi
10:15 PM48 °FMostly cloudy.5 mph82%29.93 "Hg10 mi
9:55 PM48 °FDrizzle. Overcast.5 mph82%29.92 "Hg10 mi
9:15 PM48 °FPartly cloudy.7 mph82%29.90 "Hg10 mi
8:55 PM48 °FOvercast.6 mph82%29.90 "Hg10 mi
8:15 PM50 °FMostly cloudy.5 mph88%29.89 "Hg10 mi
7:55 PM50 °FOvercast.5 mph88%29.88 "Hg10 mi
7:15 PM50 °FPartly cloudy.7 mph94%29.87 "Hg10 mi
6:55 PM50 °FPartly cloudy.5 mph88%29.86 "Hg10 mi
6:35 PM50 °FBroken clouds.7 mph100%29.85 "Hg10 mi
6:15 PM50 °FCloudy.6 mph100%29.84 "Hg10 mi
5:55 PM50 °FMostly cloudy.6 mph100%29.83 "Hg10 mi
5:15 PM50 °FCloudy.7 mph100%29.82 "Hg10 mi
4:55 PM50 °FLight rain. Cloudy.7 mph100%29.81 "Hg7 mi
4:35 PM52 °FCloudy.3 mph100%29.80 "Hg10 mi
4:15 PM52 °FCloudy.8 mph100%29.79 "Hg10 mi
3:55 PM52 °FMore clouds than sun.5 mph100%29.78 "Hg10 mi
3:35 PM52 °FLight rain. Cloudy.3 mph100%29.78 "Hg10 mi
3:15 PM52 °FLight rain. Cloudy.6 mph100%29.78 "Hg10 mi
2:55 PM52 °FDrizzle. Mostly cloudy.5 mph100%29.77 "Hg10 mi
2:35 PM52 °FLight rain. Mostly cloudy.6 mph100%29.76 "Hg10 mi
2:15 PM52 °FDrizzle. Mostly cloudy.7 mph100%29.76 "Hg10 mi
1:55 PM52 °FCloudy.6 mph100%29.76 "Hg10 mi
1:35 PM50 °FRain. Mostly cloudy.8 mph100%29.76 "Hg5 mi
1:15 PM50 °FRain. Mostly cloudy.6 mph100%29.76 "Hg4 mi
12:55 PM50 °FHeavy rain. Mostly cloudy.6 mph100%29.76 "Hg5 mi
12:35 PM52 °FMore clouds than sun.8 mph100%29.76 "Hg10 mi
12:15 PM52 °FRain. Mostly cloudy.5 mph100%29.78 "Hg5 mi
11:55 AM50 °FLight rain. Cloudy.3 mph100%29.78 "Hg4 mi
11:35 AM50 °FLight rain. Overcast.5 mph100%29.78 "Hg7 mi
11:15 AM50 °FDrizzle. Mostly cloudy.5 mph100%29.79 "Hg3 mi
10:55 AM50 °FDrizzle. Overcast.3 mph100%29.79 "Hg5 mi
10:35 AM50 °FDrizzle. Mostly cloudy.3 mph100%29.79 "Hg10 mi
10:15 AM50 °FMore clouds than sun.No wind100%29.79 "Hg10 mi
9:55 AM50 °FRain. Cloudy.No wind100%29.81 "Hg5 mi
9:35 AM50 °FLight rain. Mostly cloudy.No wind100%29.80 "Hg10 mi
9:15 AM50 °FLight rain. Cloudy.3 mph100%29.80 "Hg7 mi
8:55 AM50 °FCloudy.5 mph100%29.81 "Hg10 mi
8:35 AM50 °FCloudy.5 mph100%29.79 "Hg10 mi
8:15 AM50 °FOvercast.5 mph100%29.79 "Hg10 mi
Weather by CustomWeather, © 2014

See weather overviewHow to use our weather pages